Dewpoint
64 62 59 56 59 57 51 49 27 38 35 32 30 30 21 30 29 21 19 14 14 21 30 30 33 35 30 31 30 36 40 39 40 31 30 48 53 54 55 57 59 61 61 61 61 61 62 65 64 63 64 64 64 65 65 65 65 66 66 67 67 67 67 67 67 67 68 68 69 68 68 68 68 68 68 68 68 69 69 68 68 68 69 69 69 69 69 69 69 69 68 70 70 70 70 70 70
61 59 57 56 54 53 48 47 37 33 32 28 28 28 24 26 23 20 17 20 24 26 31 28 31 34 34 32 32 37 38 41 42 46 46 50 53 53 53 55 58 60 60 61 61 61 61 63 64 63 63 63 63 64 64 64 65 67 67 67 66 67 67 67 66 66 67 67 68 67 67 67 67 67 67 67 67 67 67 66 66 67 67 68 68 69 70 70 70 70 70 70 69 69 69 70 70
61 56 57 54 52 53 50 42 34 31 29 26 28 26 25 18 25 29 24 26 27 28 28 26 28 31 30 29 26 26 29 43 43 45 46 51 49 50 53 54 57 58 60 60 60 60 61 63 64 63 62 62 62 62 62 62 63 65 65 66 66 66 66 66 66 66 66 66 66 66 66 66 66 66 66 66 66 65 65 65 65 65 66 66 67 68 69 69 69 69 68 68 67 66 67 67 68
60 59 56 54 49 47 42 37 34 30 29 28 25 25 25 26 30 29 29 29 29 28 29 26 26 30 28 28 27 34 40 40 42 45 46 48 48 51 53 53 58 57 59 60 59 60 60 63 64 62 61 62 62 62 63 62 63 64 63 64 64 64 64 64 64 64 64 65 64 64 65 65 65 65 64 65 64 64 64 64 63 63 64 65 66 67 68 68 67 67 67 67 66 64 64 64 65
53 57 57 51 50 44 39 38 35 31 30 30 20 27 24 30 30 29 28 28 27 26 27 27 30 31 31 30 32 30 36 43 44 45 46 48 51 51 51 55 54 57 58 58 59 60 60 63 64 64 62 61 62 62 62 62 62 63 63 63 64 64 64 63 63 63 63 62 62 63 63 63 63 63 63 63 62 62 62 62 61 61 61 62 63 64 65 65 65 65 64 64 63 62 62 62 62
54 53 56 51 45 46 41 36 33 30 33 32 21 20 23 29 28 27 28 28 28 28 27 24 24 29 28 30 33 36 41 39 43 45 46 46 50 51 52 54 53 54 57 57 58 59 59 63 62 62 62 61 62 62 62 63 63 62 63 62 62 62 63 62 62 62 62 61 62 61 62 62 62 62 61 60 60 59 59 59 59 59 59 59 59 60 60 61 61 61 61 60 60 60 59 59 59
51 50 47 45 44 39 35 33 32 32 30 28 23 21 28 29 27 26 26 26 28 27 29 24 29 26 25 30 33 40 44 46 43 44 47 49 51 51 51 50 53 56 56 57 57 58 59 62 61 61 61 61 61 61 62 62 62 61 61 61 61 61 61 61 61 61 61 60 60 59 59 59 60 59 59 58 57 57 57 57 57 57 57 58 58 59 60 60 60 60 59 59 59 59 58 59 58
53 47 45 38 37 30 29 29 27 29 24 24 20 25 27 28 27 26 26 20 23 21 25 28 29 27 25 31 29 35 46 46 48 46 47 49 50 50 50 47 54 55 55 56 56 58 61 62 61 60 60 60 60 60 61 61 60 60 60 59 60 60 59 59 59 59 59 58 57 57 57 57 57 57 57 57 56 56 57 57 57 57 57 58 58 58 59 59 59 58 58 58 58 57 57 57 57
48 45 47 39 32 35 31 27 26 25 24 26 24 35 36 28 27 26 26 25 27 25 26 27 27 22 23 28 29 38 44 47 45 48 47 48 49 48 46 48 52 54 54 55 55 56 57 61 60 59 59 59 59 59 59 59 59 59 58 58 57 57 57 57 57 57 57 56 56 56 56 56 56 57 57 57 57 57 56 56 56 56 56 56 56 57 57 57 57 57 57 57 56 56 56 55 55
42 42 36 33 35 28 31 30 29 29 28 26 25 20 26 26 25 24 23 26 25 24 25 28 25 20 24 27 33 37 40 44 44 44 45 47 46 45 44 47 53 54 54 53 53 54 55 59 60 60 59 59 58 58 59 59 58 58 57 57 56 56 56 56 56 56 56 55 56 56 56 55 55 56 56 56 56 56 55 54 54 54 54 55 55 55 55 55 56 56 56 56 55 55 55 55 55
38 41 43 32 30 31 31 27 27 28 26 24 21 21 22 22 21 22 22 26 26 24 27 27 26 25 25 25 33 40 44 42 41 41 43 44 43 37 42 47 52 53 52 52 53 53 54 56 58 59 58 58 57 57 57 57 57 57 56 56 55 55 55 55 55 55 55 55 55 54 54 54 53 53 54 54 54 54 54 52 52 51 51 52 53 53 52 52 53 53 53 53 53 53 53 53 54
37 38 36 31 29 27 27 28 29 29 28 25 20 21 21 22 24 20 20 22 24 26 25 27 26 26 25 27 32 39 40 39 41 42 42 43 36 38 42 44 48 51 52 51 51 51 53 54 55 57 57 57 56 56 56 57 57 57 56 56 55 54 54 54 54 54 54 54 54 54 54 53 51 49 48 49 49 51 52 51 51 50 50 50 52 52 52 52 52 53 53 53 53 53 53 53 53
38 39 34 29 29 28 29 28 28 33 27 25 22 20 22 21 21 20 21 23 23 25 26 26 26 26 26 27 37 40 37 39 40 40 41 37 36 36 38 40 45 49 50 50 49 50 50 51 53 53 55 56 56 56 55 55 56 56 56 55 54 54 53 53 53 53 52 52 51 51 51 50 49 48 47 46 45 47 50 51 50 50 51 51 52 52 53 52 52 53 53 53 53 53 52 52 51
37 38 34 30 33 28 25 25 26 24 24 22 20 23 24 22 22 21 20 22 23 25 27 27 26 25 25 27 33 37 36 39 37 38 36 34 35 34 38 39 43 45 48 48 48 48 48 49 50 52 52 51 51 54 54 54 54 54 54 54 54 53 53 52 51 51 50 48 48 47 47 48 48 48 47 47 46 46 49 51 50 49 50 50 51 52 51 51 51 52 52 52 52 52 50 50 50
37 42 33 31 28 23 28 21 22 24 25 24 21 22 22 23 23 26 20 26 20 25 27 26 31 22 20 21 22 36 37 39 37 35 35 32 33 32 38 39 39 40 42 44 45 45 45 46 48 49 48 48 47 48 49 51 52 52 52 52 52 51 51 50 49 48 47 48 48 48 47 47 47 46 46 46 45 44 46 48 48 48 48 49 50 50 49 49 50 50 50 50 50 47 48 48 49
41 38 34 29 26 23 25 26 28 25 25 24 22 22 21 21 25 22 24 22 28 33 27 24 27 22 24 22 28 33 36 37 36 35 32 30 36 37 37 36 33 34 37 38 40 41 41 43 45 45 44 45 44 45 47 48 51 51 49 49 49 48 48 47 46 47 47 47 47 47 48 45 45 46 46 45 43 42 43 46 46 46 45 47 48 47 47 48 48 48 48 48 47 45 46 47 48
41 39 28 30 25 25 29 24 25 22 27 26 22 20 18 20 23 24 23 24 23 25 26 27 25 28 25 25 36 36 36 37 38 31 30 29 32 32 33 33 33 32 35 34 35 35 36 38 41 41 41 42 42 43 44 46 48 50 50 48 47 45 43 43 42 44 47 47 48 49 48 43 40 38 39 40 47 44 46 45 43 44 42 43 44 44 45 45 46 46 45 45 45 44 44 47 48
40 33 29 25 28 27 31 26 23 25 24 22 20 20 18 17 22 22 23 22 23 23 26 26 26 26 29 34 36 35 36 34 32 29 28 29 31 30 30 29 31 28 31 32 32 32 33 35 38 38 39 39 39 42 42 45 47 46 44 45 45 46 46 47 45 43 48 43 47 46 43 44 36 37 40 44 43 46 45 44 44 42 41 41 41 42 44 44 44 45 44 44 43 43 44 39 41
37 35 30 24 28 27 29 24 20 18 19 20 20 20 18 18 21 22 20 19 20 20 20 23 24 25 29 33 33 34 34 33 30 28 28 30 29 28 29 30 28 27 29 31 29 31 32 34 35 35 37 37 37 38 40 42 40 38 39 40 42 45 45 45 42 45 42 41 40 38 40 38 35 37 40 41 45 49 47 47 40 40 39 39 39 40 41 43 43 43 43 42 42 43 37 38 39
36 32 29 30 32 30 27 23 19 20 19 19 19 20 19 19 20 22 20 19 21 19 18 21 21 22 26 32 31 32 32 31 30 28 28 28 28 28 28 29 26 26 26 28 27 32 31 32 33 34 36 38 37 36 38 37 37 36 36 37 39 38 40 42 40 40 40 39 37 36 36 39 38 37 48 47 45 37 38 44 42 42 40 40 40 39 41 41 41 42 43 42 41 38 34 34 35
34 31 29 28 28 25 24 22 21 22 21 20 20 21 20 20 20 20 20 18 18 18 19 18 19 20 23 31 31 31 30 30 29 28 28 28 28 28 28 28 25 25 25 28 31 29 30 31 32 34 36 38 37 37 35 35 37 37 35 34 36 37 38 38 39 39 39 38 36 34 36 39 36 35 37 36 35 35 35 35 35 35 35 35 40 34 33 34 33 34 33 36 33 34 33 33 33
35 26 26 26 26 26 25 21 25 21 22 20 23 19 17 23 21 19 19 17 17 18 19 19 19 20 22 30 30 30 30 29 29 29 28 28 28 28 28 27 26 24 28 26 27 28 30 29 31 33 35 36 37 37 34 35 37 34 32 33 36 36 38 37 37 37 38 36 35 36 39 36 35 34 35 35 35 35 35 34 34 34 34 33 35 31 31 31 31 31 32 33 32 32 32 33 33
28 28 27 27 27 26 27 22 24 20 20 19 23 19 20 20 19 20 19 18 18 20 20 20 19 20 20 28 30 29 30 29 29 29 29 29 29 28 27 26 25 23 28 26 25 26 27 28 30 33 33 35 35 36 34 36 34 33 33 36 35 35 37 36 37 37 35 36 35 38 36 33 33 34 34 34 34 35 34 34 32 33 31 31 33 30 30 30 31 31 32 32 32 33 33 33 33
30 27 23 22 23 22 22 21 23 21 18 18 19 21 19 20 17 20 19 19 19 20 20 20 22 25 22 27 29 29 30 29 29 29 29 29 29 29 28 26 25 24 26 26 25 24 29 27 29 31 32 33 34 34 33 34 32 33 34 39 36 37 36 36 35 34 36 34 36 37 36 32 31 32 33 33 34 34 33 34 32 32 31 30 32 31 30 30 31 31 32 33 33 33 33 32 32
28 26 24 23 23 22 23 21 22 21 20 19 25 20 18 19 18 20 18 19 20 20 20 20 20 24 23 25 28 29 29 30 29 29 30 30 31 31 32 28 25 26 25 26 26 23 26 28 29 30 30 31 32 31 31 31 32 33 35 35 34 39 34 35 33 34 32 34 34 36 35 31 31 31 31 32 33 32 33 32 31 31 31 30 30 30 31 30 31 32 32 32 33 33 32 31 33
24 25 23 20 20 19 19 19 19 20 20 21 20 18 19 20 21 18 19 19 20 20 20 20 20 22 23 23 27 28 28 29 30 28 28 30 31 29 31 29 25 23 25 25 26 24 24 27 28 29 29 29 32 30 30 29 33 33 33 34 33 39 34 33 33 32 32 32 33 34 36 32 31 30 31 32 31 32 31 32 32 31 30 29 29 29 32 31 31 32 32 31 32 31 30 30 33
21 21 21 19 19 19 19 19 19 19 21 20 18 18 18 21 20 16 17 18 20 20 20 20 20 20 21 23 25 27 28 29 29 29 29 29 29 29 30 31 26 23 26 25 25 24 26 26 28 28 29 33 32 30 29 28 34 31 32 33 33 34 33 33 33 31 32 32 32 33 33 34 32 31 30 31 32 31 31 31 31 31 29 29 30 30 32 33 32 31 31 31 31 30 29 30 30
21 20 19 20 20 23 19 19 19 19 18 20 19 18 20 20 23 17 17 19 21 20 20 20 21 20 19 21 23 27 27 28 29 29 29 28 28 28 28 30 28 24 25 25 24 24 25 26 27 27 28 31 32 29 30 29 32 30 32 30 31 33 32 31 32 31 33 32 34 33 32 33 34 32 31 31 31 30 30 31 31 30 30 29 30 31 31 32 31 30 30 32 32 30 29 28 29
21 20 19 19 20 19 20 19 19 19 17 20 20 19 18 20 18 19 19 19 20 19 19 20 20 21 22 21 21 23 25 25 28 28 29 28 27 28 28 29 29 25 25 25 25 26 24 25 27 26 28 31 30 28 29 30 31 30 31 28 31 35 31 31 30 31 31 33 33 32 31 33 33 32 32 32 34 30 31 31 31 31 30 29 30 33 31 29 28 29 29 32 29 29 29 28 31
21 20 19 18 18 18 18 19 19 18 18 20 18 16 15 16 18 19 19 19 19 19 19 19 21 21 21 22 21 21 22 25 26 28 28 28 28 27 27 27 29 26 25 26 25 24 25 28 30 28 28 30 30 27 29 30 30 31 30 28 33 31 31 30 31 31 32 32 32 31 32 33 32 32 31 31 30 29 31 30 30 30 30 30 31 31 28 30 29 29 31 28 31 29 28 28 28
18 19 20 19 18 17 18 18 19 17 21 19 17 16 14 14 14 16 19 19 18 17 18 18 19 20 21 22 22 22 21 22 24 26 28 29 28 28 28 27 28 26 28 26 25 24 26 27 28 25 30 29 30 27 30 29 30 31 29 31 31 31 30 30 31 31 31 31 31 31 32 33 31 31 32 30 29 29 29 29 29 29 30 31 28 30 28 30 30 29 31 27 27 28 29 29 28
20 18 18 23 18 18 18 20 18 16 20 18 17 18 15 15 15 15 14 16 17 17 17 17 19 18 19 20 21 21 22 22 23 25 26 28 29 27 28 27 27 26 26 25 25 24 23 25 28 26 29 27 27 28 29 30 30 30 30 33 30 31 30 30 30 31 31 31 31 30 31 32 30 31 31 31 29 28 27 28 29 30 31 30 30 30 31 28 29 31 30 29 27 27 29 26 26
22 17 19 18 23 19 18 20 20 17 18 19 16 15 15 15 15 16 16 15 16 16 16 17 18 18 18 18 19 20 20 21 24 22 24 27 29 28 27 27 27 27 25 25 25 23 23 24 26 25 27 26 25 28 29 30 29 30 30 30 30 31 29 29 30 30 31 30 30 30 31 32 30 31 30 31 28 28 28 28 29 30 31 29 29 29 29 31 28 31 29 31 30 28 27 25 25
20 23 18 22 18 18 18 21 20 23 17 16 16 15 14 14 13 13 12 18 15 16 16 17 17 17 18 18 18 19 19 20 20 22 22 26 27 28 27 31 28 27 25 25 25 23 22 24 24 25 26 25 27 29 29 29 28 30 30 29 31 29 29 29 29 30 30 30 30 29 31 32 31 31 30 30 29 29 28 28 28 29 30 30 29 28 26 29 29 28 28 30 29 27 25 25 25
15 22 21 20 19 18 18 18 18 17 17 16 16 16 15 15 16 15 15 15 17 16 16 16 17 17 17 18 18 18 18 19 19 20 23 24 27 28 27 28 28 27 25 25 25 23 23 24 24 28 26 26 28 28 29 28 28 28 28 29 30 28 29 28 28 28 29 30 29 30 31 31 31 30 30 30 28 29 28 28 28 29 29 29 28 28 27 30 31 30 27 27 28 27 27 26 26
17 19 16 17 18 15 12 14 18 17 17 16 16 15 15 16 16 16 16 16 16 15 16 17 16 16 16 16 16 17 17 16 18 21 27 26 27 28 27 28 28 27 25 24 25 23 22 23 24 27 25 25 27 27 28 27 27 28 27 28 28 29 28 29 27 27 28 29 31 30 30 30 30 30 29 29 28 28 27 28 28 29 29 28 28 27 27 26 27 28 27 28 26 27 28 27 27
16 21 21 16 16 15 17 17 17 18 16 16 15 15 15 15 16 16 16 16 17 16 15 14 16 16 16 16 16 16 15 15 23 28 27 26 30 29 27 28 28 26 25 24 23 23 22 22 25 25 24 26 27 26 26 25 25 27 27 26 26 27 27 27 27 27 26 29 31 30 30 29 30 30 30 29 27 29 27 27 27 27 28 28 28 27 27 28 29 27 28 27 27 26 27 28 26
18 19 20 17 21 17 17 18 18 18 17 16 16 16 16 15 16 16 16 15 14 14 14 14 14 14 16 16 16 16 16 21 29 29 30 30 30 31 29 28 29 25 24 24 23 23 23 22 23 24 23 25 26 25 25 25 25 25 25 24 25 26 27 26 26 26 27 31 30 29 29 29 29 29 29 27 27 27 25 26 26 26 27 28 28 29 28 32 29 27 28 27 28 28 26 26 27
21 19 19 20 20 21 18 17 16 16 18 15 15 15 15 16 16 16 16 15 15 15 15 15 14 14 16 16 16 16 17 19 27 26 29 28 32 30 28 28 27 25 24 24 23 23 23 22 23 24 23 25 25 25 25 24 25 25 25 25 25 25 26 26 25 27 29 29 29 29 29 29 29 28 28 28 27 26 25 25 26 26 27 28 27 26 27 27 27 27 28 27 26 27 28 28 26
19 18 18 17 19 17 13 13 16 14 15 14 16 14 14 14 14 15 15 16 16 18 18 19 18 16 15 15 14 16 16 21 24 25 26 27 30 27 27 27 26 25 25 24 23 23 23 24 22 24 23 24 25 25 26 24 25 26 25 25 26 25 25 26 26 28 29 28 28 28 29 28 28 27 28 27 27 26 25 25 25 26 25 27 26 25 26 26 27 27 26 28 26 24 23 25 28
20 21 19 18 19 17 16 12 18 17 16 18 14 17 17 18 18 19 19 20 19 19 19 19 20 25 23 25 24 23 18 21 25 25 26 27 28 25 25 26 25 24 25 24 23 23 22 23 23 23 23 24 25 27 26 25 26 25 26 25 27 26 26 25 25 26 27 27 27 27 28 29 28 27 27 27 27 25 26 25 25 25 25 26 27 25 25 26 26 27 27 27 26 22 23 25 27
16 20 20 17 17 16 16 17 21 21 22 24 22 16 13 17 18 17 16 17 17 18 18 18 18 19 20 19 21 22 27 27 25 24 25 26 27 25 24 25 24 23 24 25 23 24 23 23 23 23 23 24 24 25 25 25 25 24 24 23 23 23 23 23 22 24 25 26 25 26 27 28 28 27 27 27 27 26 25 25 25 24 25 26 26 25 25 25 26 25 26 25 24 26 24 24 23
17 17 24 20 18 19 21 24 25 22 19 21 22 15 14 15 15 17 16 17 16 17 19 18 18 18 19 20 22 21 24 28 26 25 25 26 26 24 23 23 23 22 23 25 24 23 23 23 22 23 23 23 25 25 24 25 24 23 22 21 21 21 21 22 21 23 24 25 26 25 26 27 27 27 26 26 27 26 25 25 25 24 24 25 28 25 25 24 25 25 27 25 26 30 24 22 22
17 26 26 26 24 26 26 26 26 23 25 27 25 22 18 17 15 15 15 13 12 11 12 15 17 18 18 18 19 20 27 28 26 25 24 25 25 24 22 22 22 22 22 23 23 23 23 23 22 22 22 23 24 25 23 24 23 22 21 20 21 20 20 21 21 22 24 25 25 25 25 26 26 26 26 26 26 26 25 25 25 25 25 24 27 24 24 24 26 26 26 25 26 25 24 22 22
21 26 31 28 26 26 28 25 24 24 20 19 20 23 15 15 14 13 12 10 10 10 10 11 13 16 17 18 19 19 24 29 26 26 24 24 24 24 22 22 22 22 22 22 23 22 23 23 23 22 21 22 23 24 23 23 23 22 21 20 20 20 19 21 22 24 24 25 24 25 25 25 26 26 26 25 25 25 26 25 25 24 24 24 26 25 24 24 23 22 22 22 22 24 25 25 23
26 29 31 29 28 27 24 20 18 21 16 17 18 18 13 11 12 13 14 11 10 10 11 11 12 15 16 17 18 19 21 29 28 26 24 24 24 23 23 22 22 22 23 24 23 23 23 23 23 22 20 21 22 22 23 23 22 23 20 20 19 20 20 21 21 22 22 23 23 24 24 25 25 25 25 25 25 25 25 25 24 23 23 24 26 23 24 24 24 24 25 23 23 23 24 24 23
32 29 25 28 26 25 24 23 20 19 16 18 20 20 15 11 15 11 14 17 11 11 11 11 12 15 14 15 16 19 22 28 30 27 25 25 25 24 23 21 21 23 23 22 23 22 22 23 22 21 20 20 20 21 22 22 21 22 20 20 19 19 19 19 19 21 21 22 21 23 23 24 24 24 24 25 24 25 24 25 24 23 23 25 25 23 22 23 24 24 24 24 24 23 23 24 25
29 24 22 21 22 24 22 20 20 12 14 18 18 20 16 12 13 15 12 14 12 11 11 11 12 12 14 15 15 16 19 28 30 28 25 24 24 24 23 21 21 21 23 22 22 22 22 22 22 21 20 19 19 20 22 23 22 22 20 19 19 19 18 19 18 19 20 20 20 22 22 23 23 24 24 24 23 24 24 23 23 23 23 23 22 22 22 22 23 23 23 23 22 23 23 24 22
27 22 20 16 19 15 9 14 11 12 13 15 17 20 19 13 9 12 13 14 14 14 12 12 12 11 13 13 15 17 26 30 29 28 26 25 24 24 22 21 21 21 22 21 21 21 21 21 21 20 19 19 19 19 21 22 22 21 21 19 19 18 18 18 17 18 19 19 19 20 21 21 22 22 22 22 22 23 23 22 22 22 22 22 22 22 22 22 23 22 21 22 22 21 21 21 21
25 22 21 17 12 9 7 9 12 15 19 20 16 21 12 10 11 15 13 13 13 14 14 14 12 12 12 13 15 20 30 30 29 28 26 24 24 24 23 22 21 21 21 22 21 21 21 21 20 20 19 19 19 20 20 21 21 21 20 19 18 18 17 17 16 17 18 18 20 19 19 20 21 20 21 21 22 22 23 22 22 21 21 22 22 21 22 22 22 21 22 21 21 21 21 21 21
23 24 21 21 17 9 5 10 9 11 14 17 20 16 18 9 13 19 14 14 14 13 14 16 16 15 14 14 23 27 28 29 29 27 26 25 24 23 23 23 22 21 21 21 21 21 21 20 20 20 19 19 19 20 20 21 21 20 20 19 18 17 17 18 17 18 18 18 19 18 18 18 19 19 20 20 22 22 21 21 21 20 21 21 21 21 22 22 23 23 23 21 22 21 21 22 22
23 24 22 16 19 17 10 14 15 9 13 15 15 17 17 13 14 16 16 16 16 18 18 17 15 15 17 24 27 28 27 28 28 27 26 25 24 23 23 23 22 22 21 21 21 21 21 20 20 19 19 18 19 20 20 20 20 19 19 19 17 17 19 19 19 20 18 18 18 18 18 17 18 18 19 20 21 21 21 21 21 20 19 20 20 20 21 21 22 22 22 22 21 24 22 22 22
22 22 19 20 21 18 16 19 19 12 10 13 14 13 15 15 9 9 11 11 11 12 15 16 14 14 16 21 27 27 27 27 27 27 26 25 24 23 23 22 22 22 21 21 21 21 20 20 20 19 18 18 19 20 20 20 20 19 19 18 18 18 18 18 17 18 18 18 18 17 17 17 17 18 19 20 20 20 20 19 19 18 19 20 20 21 21 22 22 22 22 21 21 22 22 22 22
21 18 20 26 29 25 17 13 13 11 12 12 14 11 8 9 12 15 12 12 11 11 11 10 13 15 13 18 29 28 27 27 27 26 26 25 24 22 22 22 21 21 21 20 21 21 21 20 19 18 18 18 18 19 20 20 19 18 18 18 18 18 18 18 18 18 18 18 18 17 17 18 17 18 19 21 19 19 19 21 18 19 19 20 20 21 21 22 22 22 22 22 22 22 22 22 23
22 23 28 20 16 15 19 18 13 13 13 13 9 9 8 9 9 9 10 11 10 10 11 10 10 12 13 19 27 28 27 27 27 26 26 26 25 24 22 21 21 20 21 20 21 22 22 20 20 19 18 17 17 19 20 20 19 19 19 18 18 18 18 18 18 19 18 17 17 17 17 17 17 18 19 19 18 18 18 18 18 19 20 20 21 21 22 22 22 22 22 22 21 21 22 22 22
27 28 22 26 19 20 16 20 18 17 14 14 15 12 12 17 11 11 12 10 12 11 11 9 8 10 13 18 24 28 27 27 27 27 26 26 25 24 22 21 20 19 19 20 21 22 21 21 20 19 18 18 17 18 19 19 19 18 18 17 17 18 19 19 18 18 17 17 17 17 16 16 16 18 18 17 17 17 18 17 18 19 20 20 21 21 22 22 22 21 21 21 21 21 21 21 22
22 22 21 21 18 21 21 21 20 15 14 13 12 12 14 15 13 12 12 11 13 12 12 18 19 17 16 21 26 29 29 27 27 26 26 26 25 24 23 22 21 20 19 20 21 21 22 22 21 20 19 18 17 17 18 19 19 18 18 17 17 17 18 18 18 18 17 16 17 17 16 15 17 17 17 16 16 17 17 18 18 19 19 20 20 20 21 21 21 21 20 20 20 20 20 20 19
22 22 21 20 20 19 17 17 21 20 16 14 12 12 17 16 11 12 11 12 14 18 19 19 20 21 21 22 25 28 30 29 27 26 25 26 25 24 24 23 22 20 19 19 21 21 22 22 22 21 20 19 17 17 18 18 18 18 17 17 16 17 17 18 17 17 16 15 16 17 16 16 15 16 16 16 16 17 17 18 18 19 19 19 19 19 20 19 19 19 19 19 18 18 17 17 16